Flight Track Log - Related Links

Times and Time Zones

All times are in EDT time to prevent confusion due to time zone crossing. See the GGN7269 flight status page for this flight to view local times or setup timezone preferences in your user account.

Time Position Orientation Groundspeed Altitude Reporting Facility
EDT Latitude Longitude Course Direction KTS MPH feet Rate Location/Type
Sat 07:46:26 PM 42.8628 -85.5567 90° East 147 169 2,600  Level Chicago Center
Sat 07:47:28 PM 42.8167 -85.5586 182° South 188 216 3,800 1,317 Climbing Chicago Center
Sat 07:48:29 PM 42.7825 -85.4881 123° Southeast 220 253 5,300 1,180 Climbing Chicago Center
Sat 07:49:30 PM 42.7767 -85.3983 95° East 238 274 6,200 1,082 Climbing Chicago Center
Sat 07:50:31 PM 42.7717 -85.3039 94° East 248 285 7,500 1,171 Climbing Chicago Center
Sat 07:51:00 PM 42.7500 -85.1107 90° East  Level FlightAware Approximate
Sat 07:51:33 PM 42.7994 -85.1986 70° East 243 280 8,600  Level Chicago Center
Sat 07:52:34 PM 42.8186 -85.1033 75° East 256 295 9,600 984 Climbing Chicago Center
Sat 07:53:35 PM 42.8367 -85.0058 76° East 264 304 10,600 934 Climbing Chicago Center
Sat 07:54:36 PM 42.8544 -84.9061 76° East 270 311 11,500 885 Climbing Chicago Center
Sat 07:55:37 PM 42.8758 -84.8042 74° East 279 321 12,400 829 Climbing Chicago Center
Sat 07:56:39 PM 42.8975 -84.7000 74° East 286 329 13,200 878 Climbing Chicago Center
Sat 07:57:40 PM 42.9164 -84.5942 76° East 287 330 14,200 885 Climbing Chicago Center
Sat 07:58:41 PM 42.9378 -84.4864 75° East 294 338 15,000 787 Climbing Chicago Center
Sat 07:59:42 PM 42.9589 -84.3758 75° East 301 346 15,800 850 Climbing Chicago Center
Sat 08:00:34 PM 42.9744 -84.2722 78° East 294 338 16,600 804 Climbing Cleveland Center
Sat 08:01:34 PM 42.9947 -84.1572 76° East 299 344 17,300 750 Climbing Cleveland Center
Sat 08:02:34 PM 43.0169 -84.0392 76° East 304 350 18,100 900 Climbing Cleveland Center
Sat 08:03:34 PM 43.0369 -83.9267 76° East 304 350 19,100 1,000 Climbing Cleveland Center
Sat 08:04:34 PM 43.0611 -83.8086 74° East 309 356 20,100 900 Climbing Cleveland Center
Sat 08:05:34 PM 43.0831 -83.6931 75° East 314 361 20,900 450 Climbing Cleveland Center
Sat 08:06:34 PM 43.1031 -83.5717 77° East 319 367 21,000 50 Climbing Cleveland Center
Sat 08:07:34 PM 43.1269 -83.4478 75° East 324 373 21,000  Level Cleveland Center
Sat 08:08:34 PM 43.1511 -83.3150 76° East 324 373 21,000  Level Cleveland Center
Sat 08:09:34 PM 43.1706 -83.1878 78° East 329 379 21,000  Level Cleveland Center
Sat 08:10:34 PM 43.1919 -83.0664 76° East 334 384 21,000  Level Cleveland Center
Sat 08:11:34 PM 43.2133 -82.9447 76° East 334 384 21,000  Level Cleveland Center
Sat 08:12:34 PM 43.2344 -82.8231 77° East 334 384 21,000 -50 Level Cleveland Center
Sat 08:13:34 PM 43.2556 -82.6983 77° East 334 384 20,900  Descending Cleveland Center
Sat 08:14:34 PM 43.2703 -82.5733 81° East 334 384 21,000 66 Climbing Cleveland Center
Sat 08:15:05 PM 43.2667 -82.5000 94° East 330 380 21,000 -66 Level Toronto Center
Sat 08:16:05 PM 43.2667 -82.3833 90° East 320 368 20,900  Descending Toronto Center
Sat 08:17:05 PM 43.2833 -82.2500 80° East 320 368 21,000 50 Climbing Toronto Center
Sat 08:18:05 PM 43.2833 -82.1333 90° East 330 380 21,000 -50 Level Toronto Center
Sat 08:19:05 PM 43.2833 -82.0167 90° East 320 368 20,900 -300 Descending Toronto Center
Sat 08:20:05 PM 43.3167 -81.8833 71° East 320 368 20,400 -700 Descending Toronto Center
Sat 08:21:05 PM 43.3167 -81.7667 90° East 330 380 19,500 -1,000 Descending Toronto Center
Sat 08:22:05 PM 43.3333 -81.6333 80° East 320 368 18,400 -1,100 Descending Toronto Center
Sat 08:23:05 PM 43.3333 -81.5167 90° East 320 368 17,300 -1,050 Descending Toronto Center
Sat 08:24:05 PM 43.3333 -81.4000 90° East 320 368 16,300 -850 Descending Toronto Center
Sat 08:25:05 PM 43.3500 -81.2833 79° East 320 368 15,600 -750 Descending Toronto Center
Sat 08:26:05 PM 43.3667 -81.1500 80° East 310 357 14,800 -800 Descending Toronto Center
Sat 08:27:05 PM 43.3667 -81.0333 90° East 310 357 14,000 -1,000 Descending Toronto Center
Sat 08:28:05 PM 43.3833 -80.9167 79° East 320 368 12,800 -1,150 Descending Toronto Center
Sat 08:29:05 PM 43.4167 -80.7833 71° East 320 368 11,700 -950 Descending Toronto Center
Sat 08:30:05 PM 43.4167 -80.6667 90° East 320 368 10,900 -1,100 Descending Toronto Center
Sat 08:31:05 PM 43.4333 -80.5500 79° East 300 345 9,500 -950 Descending Toronto Center
Sat 08:32:05 PM 43.4500 -80.4333 79° East 300 345 9,000 -250 Descending Toronto Center
Sat 08:33:05 PM 43.4500 -80.3500 90° East 290 334 9,000  Level Toronto Center
Sat 08:34:05 PM 43.4833 -80.2333 68° East 280 322 9,000 -50 Level Toronto Center
Sat 08:35:05 PM 43.5167 -80.1333 65° Northeast 280 322 8,900  Descending Toronto Center
Sat 08:36:05 PM 43.5333 -80.0500 75° East 290 334 9,000  Climbing Toronto Center
Sat 08:37:05 PM 43.5667 -79.9333 68° East 280 322 8,900 -150 Descending Toronto Center
Sat 08:38:05 PM 43.5833 -79.8333 77° East 270 311 8,700 -500 Descending Toronto Center
Sat 08:39:05 PM 43.5833 -79.7500 90° East 250 288 7,900 -300 Descending Toronto Center
Sat 08:40:05 PM 43.5667 -79.6500 103° East 260 299 8,100 -150 Climbing Toronto Center
Sat 08:41:05 PM 43.5667 -79.5667 90° East 250 288 7,600 -650 Descending Toronto Center
Sat 08:42:05 PM 43.6167 -79.5000 44° Northeast 240 276 6,800 -950 Descending Toronto Center
Sat 08:43:05 PM 43.6667 -79.4333 44° Northeast 230 265 5,700 -1,100 Descending Toronto Center
Sat 08:44:05 PM 43.7000 -79.3500 61° Northeast 230 265 4,600 -1,000 Descending Toronto Center
Sat 08:45:05 PM 43.7500 -79.3333 14° North 220 253 3,700 -750 Descending Toronto Center
Sat 08:46:05 PM 43.7667 -79.3833 295° West 180 207 3,100 -400 Descending Toronto Center
Sat 08:47:05 PM 43.7500 -79.4500 251° West 160 184 2,900 -400 Descending Toronto Center
Sat 08:48:05 PM 43.7333 -79.5000 245° Southwest 150 173 2,300 -650 Descending Toronto Center
Sat 08:49:05 PM 43.7000 -79.5167 200° South 140 161 1,600 -650 Descending Toronto Center
Sat 08:50:05 PM 43.6833 -79.5667 245° Southwest 130 150 1,000 -500 Descending Toronto Center
Sat 08:51:05 PM 43.6667 -79.5833 216° Southwest 120 138 600 -400 Descending Toronto Center

Login

Don't have an account? Register now (free) for customized features, flight alerts, and more!